Date String (YYYY-MM-DD hh:mm:ss) UTC,Instrument flags,Ambient pressure (hPa),Sample flow (lpm),Bypass flow (lpm),Sample temperature (°C),Ambient temperature (°C),ASC tube jacket temperature (°C),LED temperature (°C),Box temperature (°C),Sample RH (%),Span deviation,Mass concentration (μg/m³),Mass concentration (μg/m³),Mass concentration (μg/m³)
DateTimeUTC,F1_M11,P_M11,Q1_M11,Q2_M11,T1_M11,T2_M11,T3_M11,T4_M11,T5_M11,U1_M11,ZSPAN_M11,X0_M11,X2_M11,X1_M11
2022-02-04 08:00:00,,0832.1,5.00,0.00,22.0,23.0,00.0,30.8,23.9,05.2,0000.0,0006.00,0003.37,0003.25
2022-02-04 08:01:00,,0832.1,4.99,0.00,22.0,22.6,00.0,30.8,23.7,05.2,0000.0,0006.23,0003.43,0003.32
2022-02-04 08:02:00,,0832.1,5.01,0.00,21.9,22.2,00.0,30.8,23.5,05.3,0000.0,0006.23,0003.49,0003.38
2022-02-04 08:03:00,,0832.1,5.00,0.00,21.8,21.7,00.0,30.8,23.3,05.2,0000.0,0005.44,0003.56,0003.44
2022-02-04 08:04:00,,0832.1,5.01,0.00,21.7,21.3,00.0,30.8,23.1,05.3,0000.0,0005.17,0003.61,0003.48
2022-02-04 08:05:00,,0832.1,4.99,0.00,21.6,20.9,00.0,30.8,22.9,05.2,0000.0,0005.22,0003.64,0003.51
2022-02-04 08:06:00,,0832.1,4.99,0.00,21.5,21.3,00.0,30.7,23.0,05.2,0000.0,0005.34,0003.66,0003.52
2022-02-04 08:07:00,,0832.1,5.01,0.00,21.7,22.0,00.0,30.8,23.3,05.2,0000.0,0005.39,0003.66,0003.51
2022-02-04 08:08:00,,0832.1,5.00,0.00,21.8,22.7,00.0,30.8,23.6,05.1,0000.0,0005.35,0003.68,0003.53
2022-02-04 08:09:00,,0832.1,5.00,0.00,21.9,22.7,00.0,30.8,23.7,05.0,0000.0,0005.75,0003.74,0003.58
2022-02-04 08:10:00,,0832.1,5.00,0.00,21.8,22.2,00.0,30.8,23.4,05.0,0000.0,0006.10,0003.80,0003.62
2022-02-04 08:11:00,,0832.1,5.00,0.00,21.8,21.7,00.0,30.8,23.2,05.1,0000.0,0006.06,0003.80,0003.61
2022-02-04 08:12:00,,0832.1,5.01,0.00,21.7,21.3,00.0,30.8,23.1,05.1,0000.0,0005.85,0003.79,0003.60
2022-02-04 08:13:00,,0832.0,4.99,0.00,21.6,21.0,00.0,30.7,22.9,05.1,0000.0,0005.91,0003.81,0003.62
2022-02-04 08:14:00,,0832.0,5.00,0.00,21.5,20.8,00.0,30.7,22.9,05.1,0000.0,0005.98,0003.84,0003.64
2022-02-04 08:15:00,,0832.1,5.00,0.00,21.6,21.6,00.0,30.7,23.2,05.1,0000.0,0006.02,0003.87,0003.67
2022-02-04 08:16:00,,0832.1,4.99,0.00,21.7,22.4,00.0,30.8,23.5,05.0,0000.0,0006.18,0003.91,0003.71
2022-02-04 08:17:00,,0832.1,5.00,0.00,21.9,22.9,00.0,30.8,23.7,05.0,0000.0,0006.26,0003.95,0003.75
2022-02-04 08:18:00,,0832.1,5.02,0.00,22.0,22.7,00.0,30.8,23.7,04.9,0000.0,0006.24,0003.98,0003.81
2022-02-04 08:19:00,,0832.1,4.98,0.00,21.9,22.3,00.0,30.8,23.6,05.0,0000.0,0006.25,0004.01,0003.85
2022-02-04 08:20:00,,0832.1,5.02,0.00,21.8,21.8,00.0,30.8,23.3,05.0,0000.0,0006.08,0004.04,0003.88
2022-02-04 08:21:00,,0832.1,4.99,0.00,21.7,21.4,00.0,30.8,23.0,05.0,0000.0,0005.78,0004.03,0003.87
2022-02-04 08:22:00,,0832.1,5.01,0.00,21.5,21.0,00.0,30.7,22.9,05.0,0000.0,0005.86,0004.06,0003.90
2022-02-04 08:23:00,,0832.1,4.99,0.00,21.5,21.2,00.0,30.7,22.9,05.1,0000.0,0005.98,0004.10,0003.93
2022-02-04 08:24:00,,0832.1,5.00,0.00,21.6,21.9,00.0,30.8,23.3,05.0,0000.0,0006.03,0004.11,0003.94
2022-02-04 08:25:00,,0832.1,4.99,0.00,21.8,22.5,00.0,30.8,23.6,05.0,0000.0,0006.04,0004.11,0003.94
2022-02-04 08:26:00,,0832.1,5.00,0.00,22.0,23.1,00.0,30.9,23.8,04.9,0000.0,0006.04,0004.08,0003.91
2022-02-04 08:27:00,,0832.1,5.01,0.00,22.0,22.7,00.0,30.9,23.8,05.0,0000.0,0006.36,0004.07,0003.90
2022-02-04 08:28:00,,0832.1,5.00,0.00,21.9,22.2,00.0,30.9,23.5,05.0,0000.0,0006.24,0004.06,0003.89
2022-02-04 08:29:00,,0832.1,4.99,0.00,21.8,21.6,00.0,30.8,23.2,05.1,0000.0,0006.31,0004.09,0003.91
2022-02-04 08:30:00,,0832.1,5.01,0.00,21.6,21.1,00.0,30.8,23.0,05.1,0000.0,0006.44,0004.14,0003.96
2022-02-04 08:31:00,,0832.1,4.98,0.00,21.5,20.8,00.0,30.7,22.8,05.2,0000.0,0006.48,0004.14,0003.97
2022-02-04 08:32:00,,0832.1,5.00,0.00,21.5,21.0,00.0,30.7,22.9,05.2,0000.0,0006.59,0004.18,0004.00
2022-02-04 08:33:00,,0832.1,5.00,0.00,21.6,21.8,00.0,30.8,23.2,05.1,0000.0,0006.55,0004.17,0004.00
2022-02-04 08:34:00,,0832.1,5.00,0.00,21.8,22.5,00.0,30.8,23.5,05.1,0000.0,0006.74,0004.25,0004.06
2022-02-04 08:35:00,,0832.1,5.01,0.00,21.9,22.7,00.0,30.8,23.7,05.1,0000.0,0006.83,0004.29,0004.10
2022-02-04 08:36:00,,0832.1,5.00,0.00,21.9,22.3,00.0,30.8,23.5,05.1,0000.0,0006.82,0004.29,0004.11
2022-02-04 08:37:00,,0832.1,4.99,0.00,21.8,21.8,00.0,30.8,23.3,05.1,0000.0,0006.89,0004.31,0004.13
2022-02-04 08:38:00,,0832.1,5.01,0.00,21.7,21.4,00.0,30.8,23.1,05.1,0000.0,0006.53,0004.30,0004.13
2022-02-04 08:39:00,,0832.1,4.99,0.00,21.6,21.2,00.0,30.8,23.0,05.2,0000.0,0006.64,0004.36,0004.19
2022-02-04 08:40:00,,0832.1,4.99,0.00,21.6,21.0,00.0,30.7,23.0,05.3,0000.0,0006.81,0004.41,0004.22
2022-02-04 08:41:00,,0832.1,5.00,0.00,21.6,21.6,00.0,30.7,23.2,05.3,0000.0,0006.94,0004.43,0004.24
2022-02-04 08:42:00,,0832.1,5.00,0.00,21.8,22.5,00.0,30.8,23.5,05.3,0000.0,0007.05,0004.50,0004.30
2022-02-04 08:43:00,,0832.1,5.02,0.00,22.0,23.1,00.0,30.8,23.8,05.2,0000.0,0007.25,0004.57,0004.36
2022-02-04 08:44:00,,0832.1,5.00,0.00,22.0,22.9,00.0,30.9,23.8,05.2,0000.0,0007.57,0004.64,0004.43
2022-02-04 08:45:00,,0832.1,5.00,0.00,22.0,22.5,00.0,30.9,23.7,05.2,0000.0,0007.57,0004.66,0004.46
2022-02-04 08:46:00,,0832.1,5.00,0.00,21.9,22.1,00.0,30.9,23.5,05.2,0000.0,0007.56,0004.66,0004.47
2022-02-04 08:47:00,,0832.1,5.00,0.00,21.8,21.7,00.0,30.9,23.3,05.2,0000.0,0007.63,0004.73,0004.54
2022-02-04 08:48:00,,0832.1,4.99,0.00,21.7,21.3,00.0,30.8,23.2,05.2,0000.0,0007.85,0004.78,0004.60
2022-02-04 08:49:00,,0832.2,5.01,0.00,21.6,21.0,00.0,30.8,23.0,05.2,0000.0,0007.83,0004.76,0004.57
2022-02-04 08:50:00,,0832.1,5.00,0.00,21.5,21.0,00.0,30.8,22.9,05.2,0000.0,0007.77,0004.70,0004.50
2022-02-04 08:51:00,,0832.1,5.01,0.00,21.7,21.8,00.0,30.8,23.3,05.2,0000.0,0007.78,0004.65,0004.43
2022-02-04 08:52:00,,0832.1,4.99,0.00,21.8,22.6,00.0,30.8,23.6,05.2,0000.0,0007.68,0004.61,0004.40
2022-02-04 08:53:00,,0832.2,5.00,0.00,22.0,23.1,00.0,30.9,23.8,05.2,0000.0,0007.67,0004.61,0004.40
2022-02-04 08:54:00,,0832.1,5.00,0.00,22.0,22.7,00.0,30.9,23.8,05.2,0000.0,0007.68,0004.56,0004.38
2022-02-04 08:55:00,,0832.2,5.00,0.00,21.9,22.3,00.0,30.9,23.6,05.2,0000.4,0007.52,0004.50,0004.33
2022-02-04 08:56:00,,0832.2,5.00,0.00,21.9,21.9,00.0,30.9,23.5,05.3,0000.0,0007.56,0004.56,0004.37
2022-02-04 08:57:00,,0832.2,5.00,0.00,21.8,21.5,00.0,30.8,23.3,05.3,0000.0,0007.67,0004.65,0004.47
2022-02-04 08:58:00,,0832.2,5.00,0.00,21.7,21.3,00.0,30.8,23.2,05.3,0000.0,0007.71,0004.65,0004.45
2022-02-04 08:59:00,,0832.2,4.99,0.00,21.7,21.1,00.0,30.8,23.1,05.3,0000.0,0007.54,0004.66,0004.44
